Naples, Italy

5:27 AM CEST on May 28, 2017 (GMT +0200)
Capodichino Mil

Weather History for LIRN - January, 2012

Change the Weather History Date:

Friday, January 13, 2012

  Actual Average Record
Temperature  
Mean Temperature 49 °F -  
Max Temperature 57 °F 55 °F 64 °F (2007)
Min Temperature 41 °F 39 °F 32 °F (2002)
Degree Days  
Heating Degree Days 16    
Moisture  
Dew Point 44 °F    
Average Humidity 78    
Maximum Humidity 93    
Minimum Humidity 58    
Precipitation  
Precipitation 0.00 in 0.13 in - ()
Sea Level Pressure  
Sea Level Pressure 30.16 in    
Wind  
Wind Speed 4 mph ()    
Max Wind Speed 9 mph    
Max Gust Speed -    
Visibility 6.2 miles    
Events      
Averages and records for this station are not official NWS values.
T = Trace of Precipitation, MM = Missing Value Source: Averaged Metar Reports

Daily Weather History Graph

Daily Weather History Graph

Search for Another Location

Airport or City:

Trip Planner

Search our weather history database for the weather conditions in past years. The results will help you decide how hot, cold, wet, or windy it might be!

Date:

Astronomy

Jan. 13, 2012 Rise Set
Actual Time 7:26 AM CET 4:56 PM CET
Civil Twilight 6:55 AM CET 5:27 PM CET
Nautical Twilight 6:21 AM CET 6:01 PM CET
Astronomical Twilight 5:48 AM CET 6:34 PM CET
Moon 9:52 PM CET (1/13) 9:29 AM CET (1/13)
Length of Visible Light 10h 31m
Length of Day
9h 30m
Waning Gibbous, 81% of the Moon is Illuminated
Jan 13
Waning Gibbous
Jan 16
Last Quarter
Jan 23
New
Jan 31
First Quarter
Feb 7
Full

Hourly Weather History & Observations

Time (CET) Temp. Windchill Dew Point Humidity Pressure Visibility Wind Dir Wind Speed Gust Speed Precip Events Conditions
12:20 AM 44.6 °F 42.2 °F 41.0 °F 87% 30.30 in - WSW 4.6 mph - N/A   Clear
12:50 AM 41.0 °F 39.0 °F 37.4 °F 87% 30.30 in - SW 3.5 mph - N/A   Clear
1:20 AM 42.8 °F 40.1 °F 39.2 °F 87% 30.30 in - SW 4.6 mph - N/A   Clear
1:50 AM 42.8 °F 39.3 °F 41.0 °F 93% 30.30 in - WSW 5.8 mph - N/A   Clear
2:20 AM 42.8 °F 40.1 °F 39.2 °F 87% 30.30 in - West 4.6 mph - N/A   Clear
2:50 AM 41.0 °F 39.0 °F 39.2 °F 93% 30.30 in - West 3.5 mph - N/A   Clear
3:20 AM 41.0 °F 39.0 °F 39.2 °F 93% 30.27 in - WSW 3.5 mph - N/A   Clear
3:50 AM 42.8 °F 41.1 °F 41.0 °F 93% 30.27 in - SW 3.5 mph - N/A   Clear
4:20 AM 46.4 °F 45.2 °F 44.6 °F 93% 30.27 in - SW 3.5 mph - N/A   Clear
4:50 AM 44.6 °F 41.4 °F 42.8 °F 93% 30.27 in - West 5.8 mph - N/A   Clear
5:20 AM 48.2 °F - 44.6 °F 87% 30.24 in - WSW 4.6 mph - N/A   Clear
5:50 AM 41.0 °F 39.0 °F 39.2 °F 93% 30.24 in 6.2 mi SSW 3.5 mph - N/A   Partly Cloudy
6:20 AM 44.6 °F 43.1 °F 41.0 °F 87% 30.24 in 6.2 mi SW 3.5 mph - N/A   Partly Cloudy
6:50 AM 44.6 °F 43.1 °F 41.0 °F 87% 30.24 in 6.2 mi SW 3.5 mph - N/A   Mostly Cloudy
7:20 AM 48.2 °F - 44.6 °F 87% 30.21 in 6.2 mi SW 3.5 mph - N/A   Mostly Cloudy
7:50 AM 48.2 °F - 44.6 °F 87% 30.21 in 6.2 mi WSW 4.6 mph - N/A   Mostly Cloudy
8:20 AM 51.8 °F - 44.6 °F 76% 30.21 in 6.2 mi SSW 3.5 mph - N/A   Scattered Clouds
8:50 AM 51.8 °F - 44.6 °F 76% 30.21 in 6.2 mi SSW 3.5 mph - N/A   Scattered Clouds
9:20 AM 53.6 °F - 46.4 °F 77% 30.21 in 6.2 mi South 3.5 mph - N/A   Scattered Clouds
9:50 AM 53.6 °F - 48.2 °F 82% 30.21 in 6.2 mi South 2.3 mph - N/A   Mostly Cloudy
10:20 AM 55.4 °F - 46.4 °F 72% 30.21 in 6.2 mi Variable 2.3 mph - N/A   Mostly Cloudy
10:50 AM 55.4 °F - 46.4 °F 72% 30.21 in 6.2 mi Variable 2.3 mph - N/A   Mostly Cloudy
11:20 AM 55.4 °F - 46.4 °F 72% 30.18 in 6.2 mi Variable 3.5 mph - N/A   Mostly Cloudy
11:50 AM 55.4 °F - 46.4 °F 72% 30.18 in 6.2 mi WNW 8.1 mph - N/A   Mostly Cloudy
12:20 PM 55.4 °F - 44.6 °F 67% 30.18 in 6.2 mi WNW 8.1 mph - N/A   Mostly Cloudy
12:50 PM 55.4 °F - 44.6 °F 67% 30.15 in 6.2 mi West 6.9 mph - N/A   Mostly Cloudy
1:20 PM 57.2 °F - 44.6 °F 63% 30.15 in 6.2 mi West 5.8 mph - N/A   Partly Cloudy
1:50 PM 57.2 °F - 42.8 °F 59% 30.12 in 6.2 mi West 8.1 mph - N/A   Partly Cloudy
2:20 PM 55.4 °F - 44.6 °F 67% 30.12 in 6.2 mi West 9.2 mph - N/A   Scattered Clouds
2:50 PM 57.2 °F - 44.6 °F 63% 30.12 in 6.2 mi WSW 9.2 mph - N/A   Scattered Clouds
3:20 PM 55.4 °F - 44.6 °F 67% 30.09 in 6.2 mi West 6.9 mph - N/A   Scattered Clouds
3:50 PM 53.6 °F - 44.6 °F 72% 30.09 in 6.2 mi West 6.9 mph - N/A   Scattered Clouds
4:20 PM 55.4 °F - 44.6 °F 67% 30.09 in 6.2 mi WSW 5.8 mph - N/A   Scattered Clouds
4:50 PM 51.8 °F - 42.8 °F 71% 30.09 in 6.2 mi WSW 6.9 mph - N/A   Scattered Clouds
5:20 PM 55.4 °F - 41.0 °F 58% 30.06 in 6.2 mi SW 5.8 mph - N/A   Mostly Cloudy
5:50 PM 53.6 °F - 42.8 °F 67% 30.06 in 6.2 mi WSW 8.1 mph - N/A   Mostly Cloudy
6:20 PM 53.6 °F - 42.8 °F 67% 30.06 in 6.2 mi SW 6.9 mph - N/A   Mostly Cloudy
6:50 PM 55.4 °F - 42.8 °F 63% 30.06 in 6.2 mi SW 6.9 mph - N/A   Mostly Cloudy
7:20 PM 53.6 °F - 42.8 °F 67% 30.06 in 6.2 mi SW 5.8 mph - N/A   Mostly Cloudy
7:50 PM 53.6 °F - 44.6 °F 72% 30.06 in 6.2 mi WSW 8.1 mph - N/A   Light Drizzle
8:20 PM 53.6 °F - 46.4 °F 77% 30.06 in 6.2 mi SW 3.5 mph - N/A   Light Drizzle
8:50 PM 51.8 °F - 46.4 °F 82% 30.06 in 6.2 mi West 4.6 mph - N/A   Light Drizzle
9:20 PM 51.8 °F - 46.4 °F 82% 30.06 in 6.2 mi West 4.6 mph - N/A   Mostly Cloudy
9:50 PM 51.8 °F - 46.4 °F 82% 30.04 in 6.2 mi West 5.8 mph - N/A   Mostly Cloudy
10:20 PM 51.8 °F - 46.4 °F 82% 30.04 in 6.2 mi West 5.8 mph - N/A   Mostly Cloudy
10:50 PM 51.8 °F - 46.4 °F 82% 30.04 in 6.2 mi West 4.6 mph - N/A   Mostly Cloudy
11:20 PM 51.8 °F - 46.4 °F 82% 30.04 in 6.2 mi West 4.6 mph - N/A   Mostly Cloudy
11:50 PM 51.8 °F - 46.4 °F 82% 30.04 in 6.2 mi West 4.6 mph - N/A   Mostly Cloudy